Regional Weather Roundup
Issued by NWS Memphis, TN

Home | Current Version | Previous Version | Text Only | Print | Product List | Glossary On
Versions: 1 2 3 4 5 6 7 8 9 10 11 12 13 14 15 16 17 18 19 20 21 22 23 24 25 26 27 28 29 30 31 32 33 34 35 36 37 38 39 40 41 42 43 44 45 46 47 48 49 50
000
ASUS44 KMEG 261910
RWRMEG
MEMPHIS CWA HOURLY WEATHER ROUNDUP
NATIONAL WEATHER SERVICE MEMPHIS TN
200 PM CDT THU MAR 26 2015

...WEST TENNESSEE...

CITY           SKY/WX    TMP DP  RH WIND       PRES   REMARKS
MEMPHIS INTL   CLOUDY    49  44  83 N23G31    29.98S
NWS MEMPHIS      N/A     47 N/A N/A MISG        N/A
JACKSON        CLOUDY    48  45  89 N17G26    29.97R FOG
LEXINGTON      CLOUDY    48  45  87 N9        29.92R
SAVANNAH       CLOUDY    55  52  88 N15       29.89S
DYERSBURG      CLOUDY    45  32  61 N14G23    30.04R
UNION CITY     CLOUDY    41  41 100 N17       30.02R
PARIS          CLOUDY    43  41  93 N13       29.99R


...EASTERN ARKANSAS...

CITY           SKY/WX    TMP DP  RH WIND       PRES   REMARKS
JONESBORO      LGT RAIN  45  42  89 N8G20     30.04S
WEST MEMPHIS   CLOUDY    47  45  93 N21G33    29.99F
BATESVILLE     CLOUDY    46  41  81 NW6       30.06R
NEWPORT        CLOUDY    47  44  89 N15       30.06S
BLYTHEVILLE    LGT RAIN  45  44  97 N20       30.04S FOG
NW BLYTHEVILLE CLOUDY    45  45 100 N15G25    30.04S FOG
SEARCY         CLOUDY    50  45  83 N10G21    30.06R
STUTTGART      CLOUDY    48  45  87 N17       30.03R
PINE BLUFF     CLOUDY    50  47  89 N17G26    30.02S
MONTICELLO     LGT RAIN  51  48  89 N10G18    29.98R FOG


...NORTH MISSISSIPPI...

CITY           SKY/WX    TMP DP  RH WIND       PRES   REMARKS
TUPELO         CLOUDY    72  52  49 NW7       29.83F
OXFORD         CLOUDY    57  50  77 NW20G28   29.92R
OLIVE BRANCH   LGT RAIN  46  46 100 N18G28    29.98R FOG
TUNICA         CLOUDY    48  45  87 N23G33    30.00R FOG
CLARKSDALE     CLOUDY    50  50 100 N21G32    29.98R
CORINTH        CLOUDY    57  52  82 NW15G22   29.88R
GREENWOOD      CLOUDY    72  53  51 W7        29.86F
COLUMBUS       PTSUNNY   75  51  43 VRB2      29.83S
STARKVILLE     CLOUDY    73  48  40 NW5       29.84S
GOLDEN TRIANGL PTSUNNY   75  48  38 W5        29.83F


...SOUTHEAST MISSOURI...

CITY           SKY/WX    TMP DP  RH WIND       PRES   REMARKS
WEST PLAINS    PTSUNNY   46  32  58 MISG      30.07S
POPLAR BLUFF   CLOUDY    45  37  73 N15       30.03S
CAPE GIRARDEAU CLOUDY    42  35  76 N15       30.05S


...NORTHWEST ALABAMA...

CITY           SKY/WX    TMP DP  RH WIND       PRES   REMARKS
MUSCLE SHOALS  CLOUDY    71  57  61 W10       29.83F


...MIDDLE TENNESSEE...

CITY           SKY/WX    TMP DP  RH WIND       PRES   REMARKS
NASHVILLE      CLOUDY    51  47  86 N14       29.88F FOG
CLARKSVILLE    LGT RAIN  45  44  97 N14       29.96R FOG
COLUMBIA       CLOUDY    55  55 100 NW10      29.86R


...WESTERN KENTUCKY...

CITY           SKY/WX    TMP DP  RH WIND       PRES   REMARKS
PADUCAH        CLOUDY    43  39  86 N12       30.03R
FORT CAMPBELL  LGT RAIN  44  43  95 N14       29.96R FOG


...CENTRAL ARKANSAS...

CITY           SKY/WX    TMP DP  RH WIND       PRES   REMARKS
LITTLE ROCK    LGT RAIN  51  44  77 N12       30.04F


SKY/WX REPORTED AS FAIR MEANS FEW OR NO CLOUDS BELOW
12 THOUSAND FEET.



USA.gov is the U.S. government's official web portal to all federal, state and local government web resources and services.